Résultats de la compétition "Regionale coupe Alsace" du 21-09-2008 organisée par le club 6806
     
  Télécharger le fichier CSV.  
     
     

 Circuit "circuit A"

Licence Nom Prénom Temps CN
précédent
Score sur
la course
Différence
1911MEYERKirian1:00:4460235756-267
13237POULAINAntoine1:09:5843074997+690
11513HAURYGilles1:15:1750894644-445
7004PHILIPPERenaud1:18:3044354453+18
19024DALIBARDNicolas1:19:3438294394+565

  Indice de confiance du circuit (moyenne des différences entre CN et score sur la course des 3 à 10 premiers) : 496




 Circuit "circuit B"

Licence Nom Prénom Temps CN
précédent
Score sur
la course
Différence
13040VILLARChristophe0:45:5459336425+492
1335BEAUDEUXPhilippe0:54:2754785417-61
10906COLINFranck0:55:1958005332-468
10428PHILIPPEEudes1:06:4341094421+312
312JOLYThierry1:08:0845354329-206
6904POUPINFrank1:11:4443864111-275
16234DOLCIMathias1:14:1846683969-699
19737GHEERAERTTiphaine1:15:3717473900+2153
1035CARABINThierry1:19:1937003718+18
18199BERGOENDJ. Robert1:25:0134353469+34
10901RAVENELPhilippe1:25:5040873436-651
15852CLEYET-MERLEChristophe1:26:18N/A3417N/A
12828REICHAlain1:27:0038473390-457
632DUBROCAChristele1:27:0138373389-448
20048HANAUERJean Marie1:28:4435083324-184
6901FOUCAULTHerve1:33:4626773145+468
1897FRICKBernard1:40:5836122921-691
3905JOUFFROYMichel1:41:4234332900-533
13693HAURYMarc1:57:0428802519-361
17503LUDWIGSébastienN/A36290-3629

  Indice de confiance du circuit (moyenne des différences entre CN et score sur la course des 3 à 10 premiers) : 393




 Circuit "circuit C"

Licence Nom Prénom Temps CN
précédent
Score sur
la course
Différence
7260SUTTEROlivier0:40:4358615109-752
7573OUDINBernard0:44:4546334649+16
2894LEBIHANMarcel0:46:0945774508-69
2796LEGALLAISJ-Luc0:47:4953584351-1007
8639BILQUEZHugo0:48:4035904275+685
17713KAUFFMANNBaptiste0:51:5135114012+501
6753HUEBERNicole0:52:3746913954-737
2268BOTTEMERChristian0:52:5138063936+130
2378MAKOVICKAVeronique0:53:3043433888-455
5639HUEBERDiane0:53:5542583858-400
2370CHARLOTPatrick0:54:2936453818+173
13692HAURYEvelyne0:56:1038683704-164
14216VILLARIsabelle0:56:5032523660+408
2375MAKOVICKAEdwige0:57:2635513622+71
10904RAVENELFanny0:57:5737333590-143
18467GOETTMANNPierre-Aimé0:58:0125623586+1024
16130ANCELJulie0:59:0637243520-204
7259SUTTERAriane0:59:1142153515-700
13710WISSONBernard0:59:4029313487+556
12037KOCH-MATHIANChristophe0:59:5035353477-58
19028SCHMIDT-MORGENROTHJacques1:01:5937633356-407
12146WISSONFlorent1:03:2731273279+152
2386SUTTERJean1:03:29N/A3277N/A
14223FISCHERGuy1:05:0334473198-249
13688FRANCOISAline1:06:1130463143+97
12763LASSEIGNELaurent1:07:0333343103-231
5533THIEBAULTJ-Philippe1:07:0634023100-302
11507LEBIHANMartine1:12:3930672863-204
19680GOETTMANNJean-Pierre1:13:2822872832+545
10903RAVENELManon1:17:5537202670-1050
1909MEYERCorinne1:18:1234182660-758
10902RAVENELVeronique1:31:1429532280-673
7387FOUCAULTMyriam1:37:4723782127-251
15297BOEHMYves1:55:3921831799-384
19222BONZONSMarie2:03:26N/A1685N/A
2937STRIBEAUMichel2:11:5649581577-3381
12829REICHM-Louise2:24:4920141437-577

  Indice de confiance du circuit (moyenne des différences entre CN et score sur la course des 3 à 10 premiers) : 198




 Circuit "circuit E"

Licence Nom Prénom Temps CN
précédent
Score sur
la course
Différence
19413HANAUERSébastien0:18:5525073073+566
13638KORCHAKNathalie0:19:0630343043+9
13477DIETSCHJoel0:20:4324632806+343
11508LEBIHANBarbara0:22:1923852604+219
13872JOUFFROYAxel0:22:2018552602+747
19736GHEERAERTHugo0:23:2519512482+531
2611AMIOTJacques0:23:4235612452-1109
2547DESAINTJANClaude0:24:1826422392-250
18304BEAUDEUXThéo0:24:2133462387-959
13639KORCHAKEmilie0:25:0921672311+144
20408HANAUERFlorence0:27:01N/A2151N/A
19430MEYERMartin0:28:30N/A2039N/A
19221SEMBACHLauriane0:29:29N/A1971N/A
13070ASMUSSENDaniele0:29:339311967+1036
10910COLINLeo0:29:5718601941+81
2546DESAINTJANAlice0:38:5620071493-514
325BERBETTBeatrice0:39:47N/A1461N/A

  Indice de confiance du circuit (moyenne des différences entre CN et score sur la course des 3 à 10 premiers) : 488




 Circuit "circuit D"

Licence Nom Prénom Temps CN
précédent
Score sur
la course
Différence
2263LEMBLEAndre0:40:4236173579-38
6779MAKOVICKAElsa0:42:3433383422+84
2262LEMBLEAdeline0:47:1423723084+712
17394ASMUSSENPascal0:48:1230163022+6
18468GOETTMANNThomas0:51:1820822840+758
7574OUDINM-Reine0:52:0329802799-181
2552KNOBLOCHFrancis0:54:5723712651+280
326BERBETTGabriel0:55:2328712630-241
2557VOGTChristiane0:55:2633872628-759
10909COLINCamille0:55:3025062625+119
370WOEHRLEGilbert0:55:4227562615-141
12375ASMUSSENFlorence0:58:2631872493-694
19219RIETHMULLERMathilde0:58:4019052483+578
1895SALORT - METZSylvie1:00:3723492403+54
352MULLERRaymond1:03:0826392307-332
2387SUTTEROdile1:10:3024852066-419
16260SCHNEBELENJulien1:16:0738641914-1950
3185PASCAUDClaire1:17:3520521878-174
12036KOCH-MATHIANFrancine1:24:0926571731-926
15296GREVETClaudie1:27:0511211673+552
2553KNOBLOCHMichele1:38:1420641483-581
10907COLINCarine1:59:3615671218-349
19431LICHTERLaurianeN/AN/A0N/A
15858CASASSASAntoineN/A32810-3281

  Indice de confiance du circuit (moyenne des différences entre CN et score sur la course des 3 à 10 premiers) : 212






 Retour